Location: Ertinghausen
(51.6624°N, 9.7874°E)
Time: 15:01:43
(UTC+00:00)

FENGYUN 3A - Pass Details

Date: 23 May 2024
Orbit: 821 x 835 km, 98.6° (Epoch: 12 June)

Event Time Altitude Azimuth Distance (km) Brightness Sun altitude
Rises 02:13:36 0° 13° (NNE) 3,374 8.1 -8.1°
Reaches altitude 10° 02:15:58 10° 12° (NNE) 2,435 7.2 -7.9°
Maximum altitude 02:21:20 73° 289° (WNW) 864 3.7 -7.3°
Drops below altitude 10° 02:26:39 10° 206° (SSW) 2,415 5.5 -6.7°
Enters shadow 02:27:27 - 205° (SSW) 2,729 5.7 -6.7°
